Regional Weather Roundup
Issued by NWS

Home | Current Version | Previous Version | Graphics & Text | Print | Product List | Glossary On
Versions: 1 2 3 4 5 6 7 8 9 10 11 12 13 14 15 16 17 18 19 20 21 22 23 24 25 26 27 28 29 30 31 32 33 34 35 36 37 38 39 40 41 42 43 44 45 46 47 48 49 50
000
ASUS43 KFSD 291002
RWRSD

WEATHER ROUNDUP FOR SOUTH DAKOTA
NATIONAL WEATHER SERVICE SIOUX FALLS SD
500 AM CDT FRI MAY 29 2015

NOTE: "FAIR" INDICATES FEW OR NO CLOUDS BELOW 12,000 FEET WITH NO
SIGNIFICANT WEATHER AND/OR OBSTRUCTIONS TO VISIBILITY.


SDZ001>005-009-010-012>017-291100-
NORTHWEST AND NORTH CENTRAL SOUTH DAKOTA

CITY           SKY/WX    TMP DP  RH WIND       PRES   REMARKS
BUFFALO          N/A     49  47  93 N21G28    30.05R
FAITH            N/A     53  51  93 N30G36    30.01R
MOBRIDGE       CLOUDY    57  55  93 N21G32    29.94R
$$

SDZ012>016-024>037-041>051-057-063-072>074-291100-
SOUTHWEST AND SOUTH CENTRAL SOUTH DAKOTA

CITY           SKY/WX    TMP DP  RH WIND       PRES   REMARKS
RAPID CTY ARPT CLOUDY    56  52  86 N16       30.05R
PIERRE         HVY RAIN  59  58  96 N22G36    29.90R VSB 3/4
CUSTER         CLOUDY    50  44  80 N10G21    30.09F
ELLSWORTH AFB  LGT RAIN  56  54  94 N15       30.05
PHILIP         CLOUDY    59  56  89 N13       29.96S
PINE RIDGE     CLOUDY    56  51  84 N7        30.03S
WINNER         CLOUDY    61  56  83 W10       29.88F
$$

SDZ004>011-016>023-039-040-291100-
NORTHEAST SOUTH DAKOTA

CITY           SKY/WX    TMP DP  RH WIND       PRES   REMARKS
ABERDEEN       CLOUDY    62  60  93 N8        29.88R
WATERTOWN      CLOUDY    60  58  92 CALM      29.85S
BROOKINGS      CLOUDY    63  57  82 E6        29.83F
SISSETON         N/A     60  59  96 N8        29.85R
$$

SDZ017-020-022-023-036>040-048>070-291100-
SOUTHEAST SOUTH DAKOTA

CITY           SKY/WX    TMP DP  RH WIND       PRES   REMARKS
SIOUX FALLS    CLOUDY    65  63  93 S13       29.84R
HURON            N/A    N/A N/A N/A MISG      29.81F
CHAMBERLAIN    CLOUDY    58  57  95 W6        29.85F
MITCHELL       LGT RAIN  63  60  90 SW12      29.83R
YANKTON        CLOUDY    64  61  88 W7        29.82F
$$

ABBREVIATIONS USED IN REMARKS
   TC - TEMPERATURE IN CELSIUS
  WCI - WIND CHILL INDEX
   HX - HEAT INDEX
  VSB - VISIBILITY




USA.gov is the U.S. government's official web portal to all federal, state and local government web resources and services.